DELTA 1 DEB

Satellite information

Favourite Embed

Satellite Type and Status

DEBRISIN ORBIT

Key statistics

Satellite DELTA 1 DEB at a glance.

Uptime

18041

Days in orbit

Revolutions

≈ 12.5

Per day

Orbit

SSO

Sun Synchronous Orbit

Inclination

102.4

Latest

Satellite identification and parameters

Extended collection of information and parameters for DELTA 1 DEB.

Object identification

Identified? True

Debris? True

Object name: DELTA 1 DEB

International designator: 1976-077DV

Object number (NORAD): 12540

Object ID (CCSDS): 12540

Country: UNITED STATES OF AMERICA (US)

Current information (Y/N): Y

RCS size: SMALL

Orbital parameters

Period: 115.462 minutes

Inclination: 102.4323 deg

SMA: 7854.524 km

Apoapsis: 1509.079 km

Periapsis: 1443.7 km

RAAN: 104.5019 deg

Eccentricy: 0.00416188

Argument of periapsis: 317.728 deg

Mean anomaly: 204.7983 deg

Mean motion: 12.47162171 rev/day

Mean motion (dot): -0.00000109 rev/day2

B* drag term: -0.00041490799 1/REarth

Two-line elements (TLE)

Creation date: Dec. 20, 2025, 3:40 a.m.

Reference frame: TEME

Reference center: EARTH

Epoch: Dec. 19, 2025, 6:01 p.m. UTC

TLE line 0: 0 DELTA 1 DEB

TLE line 1: 1 12540U 76077DV 25353.75110144 -.00000109 00000-0 -41491-3 0 9994

TLE line 2: 2 12540 102.4323 104.5019 0041619 317.7280 204.7983 12.47162171 78378

Live tracking on map

Real-time ground track for satellite DELTA 1 DEB.

In-orbit conjunctions

A list of the most updated potential collisions computed for object DELTA 1 DEB.

Target Orbit TCA Probability of collision Miss distance Type
COSMOS 1232 LEO 2025-01-20 09:49:24 0.0005127398 292.0 (m) PAYLOAD
COSMOS 945 LEO 2024-08-06 09:37:39 0.0001799539 174.0 (m) PAYLOAD

Associated space launch

Meteorological satellite using radiometric imaging

DELTA 1 DEB was lifted into orbit during the mission ‘Delta 2310 | NOAA 5’, on board a Delta 2310 space rocket.

The launch took place on July 29, 1976, 5:07 p.m. from Space Launch Complex 2W.

For more information about the launch, click the button.

Launch to space Delta 2310 | NOAA 5
Delta 2310 | NOAA 5

Agency: N/A

Status: Launch Successful

Launch date: July 29, 1976, 5:07 p.m. UTC

Rocket: Delta 2310

Launch pad: Space Launch Complex 2W

Location: Vandenberg SFB, CA, USA

...

Latest news about this satellite

There are no fresh news available about this satellite. Check back as we update our databases every day.


Newsletter sign-up

Weekly statistics, charts and insights to help you stay on top of the space industry.